TITAN 3C TRANSTAGE DEB, 28837

Orbit data source: Space-Track

TITAN 3C TRANSTAGE DEB, 28837 is space debris in HEO originally from a launch on Tue, 21 Dec 1965 UTC launched from the Air Force Eastern Test Range (AFETR). Debris objects in space refer to the collection of defunct objects orbiting the Earth. Examples of debris include non-operational satellites, rocket bodies, and fragments generated from explosions, collisions, or faulty payload assembly.

Loading next visibility...
Identifier
28837, 1965-108CP
Orbit
HEO
Country
Flag of USUS
Related business
Manufacturer
Unknown
Mission
Spacecraft
Bus & Motor
Unknown
Mass
Unknown
Launch date (UTC)
1965-12-21 (60 years ago)
Launch vehicle
Unknown
Launch site
Air Force Eastern Test Range (AFETR)
Object type
Payload
Rocket body
Debris
Shape & HBR
Unknown shape, 0.1 m
Radar Cross Section
Small (<0.1 m²)

Expand to show TLE details & history
Last TLE update: 23 hours ago

TLE from 23 hours ago
0 TITAN 3C TRANSTAGE DEB
1 28837U 65108CP  25342.20718405 -.00000096  00000-0  00000-0 0  9997
2 28837  25.9874 313.3566 6515273  47.5797  11.3752  2.63322080 20805
Epoch: 2025-12-08T04:58Z
TLE epoch observation values (Epoch: 2025-12-08T04:58:20.701Z)
Latitude
24.73976°
Longitude
-88.72612°
Altitude
3,271.381 km
Speed
8.04 km/s
True Right ascension
04h 12m 16s
True Declination
24° 38' 36"
Sunlit
Object was in full shadow at epoch
Visualization orbit readout
Latitude
Unknown
Longitude
Unknown
Altitude
Unknown
Speed
Unknown
Apparent Right ascension
Unknown
Apparent Declination
Unknown
Sunlit
N/A
Visualization observer readout
Local Sidereal Time
02:18:16
Azimuth
Unknown
Elevation
Unknown
Doppler factor
Unknown
Orbital elements
Apogee altitude
30,211.653 km
Perigee altitude
1,342.318 km
Semi-major axis
22,155.123 km
Eccentricity
0.65153
Inclination
25.9874°
RAAN
313.3566°
Arg. of periapsis
47.5797°
True anomaly
60.67215°
Mean anomaly
11.3752°
Eccentric anomaly
30.09193°
Mean motion
0.65816 °/min
Orbital period
546.98 mins
BSTAR
0
Loading maneuver chart data...
Computing Atmospheric mass density...

Documentation

Showing up to 5 results
|